Location: Blazny
(46.0612°N, 84.4033°W)
Time: 09:48:53
(UTC-04:00)

ARIANE 6 FM1 Upper Stage - Pass Details

Date: 16 September 2024
Orbit: 564 x 594 km, 62.0° (Epoch: 03 October)

Event Time Altitude Azimuth Distance (km) Brightness Sun altitude
Exits shadow 04:36:21 - 327° (NNW) 2,554 6.1 -26.8°
Reaches altitude 10° 04:38:30 10° 344° (NNW) 1,934 5.6 -26.5°
Maximum altitude 04:41:19 17° 25° (NNE) 1,553 5.6 -26.1°
Drops below altitude 10° 04:44:09 10° 65° (ENE) 1,936 6.4 -25.7°
Sets 04:47:09 0° 87° (E) 2,837 7.2 -25.3°
